Location: Unspecified
(0.0000°N, 0.0000°E)
Time: 23:24:17
(UTC+00:00)

Tiros 1 - Visible Passes

Search period start: 01 October 2020 00:00
Search period end: 11 October 2020 00:00
Orbit: 630 x 664 km, 48.4° (Epoch: 01 October)

Date Brightness Start Highest point End Pass type
(mag) Time Alt. Az. Time Alt. Az. Time Alt. Az.
07 Oct 8.9 19:01:18 10° N 19:03:23 18° NNE 19:03:23 18° NNE visible
08 Oct 7.7 19:26:04 10° NNW 19:29:40 48° N 19:29:40 48° N visible
09 Oct 8.7 18:11:26 10° N 18:14:44 18° NE 18:18:02 10° E visible
09 Oct 8.6 19:52:22 10° WNW 19:56:14 35° WSW 19:56:14 35° WSW visible
10 Oct 7.2 18:35:59 10° NNW 18:40:42 59° NE 18:45:16 11° SE visible
10 Oct 10.1 20:21:13 10° WSW 20:22:49 11° SW 20:23:04 11° SW visible
